Regional Weather Roundup
Issued by NWS

Home | Current Version | Previous Version | Text Only | Print | Product List | Glossary On
Versions: 1 2 3 4 5 6 7 8 9 10 11 12 13 14 15 16 17 18 19 20 21 22 23 24 25 26 27 28 29 30 31 32 33 34 35 36 37 38 39 40 41 42 43 44 45 46 47 48 49 50
000
ASUS42 KKEY 031010
RWRKEY

FLORIDA REGIONAL WEATHER ROUNDUP FOR THE FLORIDA KEYS
NATIONAL WEATHER SERVICE KEY WEST FLORIDA
600 AM EDT THU SEP 03 2015

...SOUTH FLORIDA AND THE KEYS...

CITY           SKY/WX    TMP DP  RH WIND       PRES   REMARKS
FORT MYERS     PTCLDY    80  76  87 S3        29.97R
SW REGIONAL AP MOCLDY    80  76  87 CALM      29.97R
NAPLES         PTCLDY    80  75  84 CALM      29.96S
MIAMI          PTCLDY    81  78  91 CALM      29.97R
WEST KENDALL   CLEAR     76  76 100 W3        29.97S
HOMESTEAD      CLEAR     77  74  92 NW3       29.96S
MARATHON       PTCLDY    84  77  79 SE3       29.96F HX  94
BOCA CHICA NAS PTCLDY    83  76  79 SE3       29.97S HX  91
KEY WEST INTL  CLEAR     84  76  76 SE5       29.97S HX  93

...INTERNATIONAL WEATHER...

CITY           SKY/WX    TMP DP  RH WIND       PRES   REMARKS
NASSAU BAHAMAS NOT AVBL
CANCUN MEXICO  PTCLDY    79  77  94 NE5       29.95F
COZUMEL MEXICO PTCLDY    72  72 100 CALM      29.94S

ADJACENT COASTAL WATERS...

STATION/POSITION TIME  SKY/WX   TEMP    WIND        PRES    WAVE
                                AIR SEA DIR/SP/G            HT/PER
                 (UTC)          (F)     (DEG/KT/KT) (MB)    (FT/S)
PULASKI SHOAL LI 0900                                 N/A
SAND KEY         0950            85        CALM     1014.8R
SOMBRERO KEY     NOT AVBL
LONG KEY         1000            84 87  150/  6/  7 1015.4F
MOLASSES REEF    1000            84 87  160/  2/  4 1014.6F
FOWEY ROCKS      NOT AVBL

$$


USA.gov is the U.S. government's official web portal to all federal, state and local government web resources and services.